Time,TemperatureF,DewpointF,PressureIn,WindDirection,WindDirectionDegrees,WindSpeedMPH,WindSpeedGustMPH,Humidity,HourlyPrecipIn,Conditions,Clouds,dailyrainin,SoftwareType,DateUTC
2013-08-31 00:01:00,74.5,67.5,29.81,SSW,193,5.0,6.0,79,0.00,,,0.34,meteohub,2013-08-31 05:01:00,
2013-08-31 00:06:00,74.3,67.3,29.81,WSW,237,2.0,6.0,79,0.00,,,0.00,meteohub,2013-08-31 05:06:00,
2013-08-31 00:11:00,73.8,67.3,29.81,WNW,302,2.0,6.0,80,0.00,,,0.00,meteohub,2013-08-31 05:11:00,
2013-08-31 00:16:00,73.2,67.1,29.81,West,259,0.0,6.0,81,0.00,,,0.00,meteohub,2013-08-31 05:16:00,
2013-08-31 00:21:00,73.0,66.9,29.80,West,259,0.0,4.0,81,0.00,,,0.00,meteohub,2013-08-31 05:21:00,
2013-08-31 00:26:00,73.2,67.1,29.79,SSW,209,0.0,4.0,81,0.00,,,0.00,meteohub,2013-08-31 05:26:00,
2013-08-31 00:31:00,73.2,67.1,29.78,SSW,213,0.0,4.0,81,0.00,,,0.00,meteohub,2013-08-31 05:31:00,
2013-08-31 00:36:00,73.0,66.9,29.78,SW,216,0.0,4.0,81,0.00,,,0.00,meteohub,2013-08-31 05:36:00,
2013-08-31 00:41:00,72.7,66.9,29.77,SW,216,0.0,0.0,82,0.00,,,0.00,meteohub,2013-08-31 05:41:00,
2013-08-31 00:46:00,72.7,67.3,29.76,SSW,194,2.0,0.0,83,0.00,,,0.00,meteohub,2013-08-31 05:46:00,
2013-08-31 00:51:00,73.0,67.3,29.76,South,182,2.0,4.0,82,0.00,,,0.00,meteohub,2013-08-31 05:51:00,
2013-08-31 00:57:00,73.2,67.1,29.75,SSW,205,1.0,5.0,81,0.00,,,0.00,meteohub,2013-08-31 05:57:00,
2013-08-31 01:02:00,73.2,67.1,29.74,SSE,154,5.0,5.0,81,0.00,,,0.00,meteohub,2013-08-31 06:02:00,
2013-08-31 01:07:00,73.4,67.3,29.73,South,171,5.0,6.0,81,0.00,,,0.00,meteohub,2013-08-31 06:07:00,
2013-08-31 01:12:00,73.6,67.1,29.74,SW,231,2.0,7.0,80,0.00,,,0.00,meteohub,2013-08-31 06:12:00,
2013-08-31 01:17:00,73.2,66.7,29.73,SSW,199,4.0,7.0,80,0.00,,,0.00,meteohub,2013-08-31 06:17:00,
2013-08-31 01:22:00,73.0,66.9,29.74,SW,225,2.0,7.0,81,0.00,,,0.00,meteohub,2013-08-31 06:22:00,
2013-08-31 01:27:00,72.7,66.9,29.75,SW,230,0.0,7.0,82,0.00,,,0.00,meteohub,2013-08-31 06:27:00,
2013-08-31 01:32:00,72.1,67.1,29.74,SSW,209,4.0,6.0,84,0.00,,,0.00,meteohub,2013-08-31 06:32:00,
2013-08-31 01:37:00,72.3,66.9,29.74,South,175,1.0,4.0,83,0.00,,,0.00,meteohub,2013-08-31 06:37:00,
2013-08-31 01:42:00,72.7,66.9,29.75,SSW,208,0.0,4.0,82,0.00,,,0.00,meteohub,2013-08-31 06:42:00,
2013-08-31 01:47:00,72.1,66.7,29.75,SW,215,0.0,4.0,83,0.00,,,0.00,meteohub,2013-08-31 06:47:00,
2013-08-31 01:52:00,71.8,67.1,29.76,ENE,69,2.0,4.0,85,0.00,,,0.00,meteohub,2013-08-31 06:52:00,
2013-08-31 01:57:00,71.1,66.9,29.77,WSW,238,0.0,6.0,87,0.00,,,0.00,meteohub,2013-08-31 06:57:00,
2013-08-31 02:02:00,70.9,66.6,29.77,SSE,167,2.0,8.0,86,0.00,,,0.00,meteohub,2013-08-31 07:02:00,
2013-08-31 02:07:00,71.2,66.6,29.78,NE,44,1.0,8.0,85,0.00,,,0.00,meteohub,2013-08-31 07:07:00,
2013-08-31 02:12:00,71.4,66.7,29.78,SSE,161,1.0,8.0,85,0.00,,,0.00,meteohub,2013-08-31 07:12:00,
2013-08-31 02:17:00,71.2,66.6,29.79,NW,323,0.0,7.0,85,0.00,,,0.00,meteohub,2013-08-31 07:17:00,
2013-08-31 02:22:00,70.9,66.6,29.79,ENE,74,4.0,7.0,86,0.00,,,0.00,meteohub,2013-08-31 07:22:00,
2013-08-31 02:27:00,70.7,66.4,29.79,WNW,288,0.0,8.0,86,0.00,,,0.00,meteohub,2013-08-31 07:27:00,
2013-08-31 02:32:00,71.1,66.4,29.79,East,82,0.0,8.0,85,0.00,,,0.00,meteohub,2013-08-31 07:32:00,
2013-08-31 02:37:00,70.9,66.2,29.79,ENE,71,0.0,6.0,85,0.00,,,0.00,meteohub,2013-08-31 07:37:00,
2013-08-31 02:42:00,70.5,65.8,29.79,NNE,30,0.0,5.0,85,0.00,,,0.00,meteohub,2013-08-31 07:42:00,
2013-08-31 02:47:00,70.9,66.2,29.80,South,181,0.0,5.0,85,0.00,,,0.00,meteohub,2013-08-31 07:47:00,
2013-08-31 02:52:00,70.9,66.2,29.79,South,177,0.0,5.0,85,0.00,,,0.00,meteohub,2013-08-31 07:52:00,
2013-08-31 02:57:00,71.1,66.4,29.79,South,178,0.0,5.0,85,0.00,,,0.00,meteohub,2013-08-31 07:57:00,
2013-08-31 03:02:00,70.9,66.2,29.79,South,177,0.0,0.0,85,0.00,,,0.00,meteohub,2013-08-31 08:02:00,
2013-08-31 03:07:00,70.5,66.2,29.79,SSE,165,0.0,0.0,86,0.00,,,0.00,meteohub,2013-08-31 08:07:00,
2013-08-31 03:12:00,70.0,66.0,29.79,South,188,0.0,0.0,87,0.00,,,0.00,meteohub,2013-08-31 08:12:00,
2013-08-31 03:17:00,69.6,65.8,29.80,SSW,194,0.0,0.0,88,0.00,,,0.00,meteohub,2013-08-31 08:17:00,
2013-08-31 03:22:00,69.4,65.7,29.80,ESE,115,1.0,0.0,88,0.00,,,0.00,meteohub,2013-08-31 08:22:00,
2013-08-31 03:27:00,69.3,65.8,29.80,NNE,28,0.0,2.0,89,0.00,,,0.00,meteohub,2013-08-31 08:27:00,
2013-08-31 03:32:00,69.1,66.0,29.80,NNE,26,0.0,2.0,90,0.00,,,0.00,meteohub,2013-08-31 08:32:00,
2013-08-31 03:37:00,69.1,66.0,29.80,NE,36,1.0,2.0,90,0.00,,,0.00,meteohub,2013-08-31 08:37:00,
2013-08-31 03:42:00,68.9,65.8,29.80,NE,46,0.0,3.0,90,0.00,,,0.00,meteohub,2013-08-31 08:42:00,
2013-08-31 03:47:00,68.7,65.7,29.80,NE,49,0.0,3.0,90,0.00,,,0.00,meteohub,2013-08-31 08:47:00,
2013-08-31 03:52:00,68.5,65.5,29.80,ENE,75,1.0,3.0,90,0.00,,,0.00,meteohub,2013-08-31 08:52:00,
2013-08-31 03:57:00,68.5,65.5,29.79,ENE,74,1.0,2.0,90,0.00,,,0.00,meteohub,2013-08-31 08:57:00,
2013-08-31 04:02:00,68.4,65.7,29.80,ENE,74,0.0,2.0,91,0.00,,,0.00,meteohub,2013-08-31 09:02:00,
2013-08-31 04:07:00,68.7,65.7,29.79,East,80,0.0,2.0,90,0.00,,,0.00,meteohub,2013-08-31 09:07:00,
2013-08-31 04:12:00,69.1,65.7,29.79,East,89,0.0,2.0,89,0.00,,,0.00,meteohub,2013-08-31 09:12:00,
2013-08-31 04:17:00,69.3,65.5,29.80,ENE,76,0.0,1.0,88,0.00,,,0.00,meteohub,2013-08-31 09:17:00,
2013-08-31 04:22:00,69.1,65.3,29.79,ENE,76,0.0,1.0,88,0.00,,,0.00,meteohub,2013-08-31 09:22:00,
2013-08-31 04:27:00,69.4,65.7,29.80,SE,128,0.0,5.0,88,0.00,,,0.00,meteohub,2013-08-31 09:27:00,
2013-08-31 04:32:00,69.6,65.7,29.80,ENE,76,0.0,6.0,87,0.00,,,0.00,meteohub,2013-08-31 09:32:00,
2013-08-31 04:37:00,69.3,65.5,29.80,ENE,66,2.0,6.0,88,0.00,,,0.00,meteohub,2013-08-31 09:37:00,
2013-08-31 04:42:00,68.7,65.3,29.79,ENE,61,1.0,4.0,89,0.00,,,0.00,meteohub,2013-08-31 09:42:00,
2013-08-31 04:47:00,68.5,65.1,29.79,NE,52,0.0,2.0,89,0.00,,,0.00,meteohub,2013-08-31 09:47:00,
2013-08-31 04:52:00,68.2,65.1,29.79,NE,55,0.0,2.0,90,0.00,,,0.00,meteohub,2013-08-31 09:52:00,
2013-08-31 04:57:00,68.2,65.1,29.79,East,82,1.0,1.0,90,0.00,,,0.00,meteohub,2013-08-31 09:57:00,
2013-08-31 05:02:00,68.2,65.1,29.79,East,97,0.0,4.0,90,0.00,,,0.00,meteohub,2013-08-31 10:02:00,
2013-08-31 05:07:00,68.4,65.3,29.79,ENE,65,0.0,4.0,90,0.00,,,0.00,meteohub,2013-08-31 10:07:00,
2013-08-31 05:12:00,68.4,65.3,29.79,NE,46,0.0,4.0,90,0.00,,,0.00,meteohub,2013-08-31 10:12:00,
2013-08-31 05:17:00,68.2,65.1,29.79,ENE,65,0.0,4.0,90,0.00,,,0.00,meteohub,2013-08-31 10:17:00,
2013-08-31 05:22:00,68.0,64.9,29.79,ENE,75,0.0,3.0,90,0.00,,,0.00,meteohub,2013-08-31 10:22:00,
2013-08-31 05:27:00,68.2,65.5,29.79,East,89,0.0,3.0,91,0.00,,,0.00,meteohub,2013-08-31 10:27:00,
2013-08-31 05:32:00,68.9,65.5,29.79,ESE,115,0.0,2.0,89,0.00,,,0.00,meteohub,2013-08-31 10:32:00,
2013-08-31 05:37:00,69.1,65.3,29.79,ESE,116,0.0,2.0,88,0.00,,,0.00,meteohub,2013-08-31 10:37:00,
2013-08-31 05:42:00,68.9,65.1,29.79,ENE,63,1.0,1.0,88,0.00,,,0.00,meteohub,2013-08-31 10:42:00,
2013-08-31 05:47:00,68.5,65.1,29.79,NE,42,0.0,1.0,89,0.00,,,0.00,meteohub,2013-08-31 10:47:00,
2013-08-31 05:52:00,68.2,65.1,29.79,NE,51,0.0,1.0,90,0.00,,,0.00,meteohub,2013-08-31 10:52:00,
2013-08-31 05:57:00,68.5,65.5,29.79,SE,125,2.0,2.0,90,0.00,,,0.00,meteohub,2013-08-31 10:57:00,
2013-08-31 06:02:00,69.3,65.5,29.80,SSW,194,0.0,2.0,88,0.00,,,0.00,meteohub,2013-08-31 11:02:00,
2013-08-31 06:07:00,69.6,65.7,29.80,SSW,198,0.0,2.0,87,0.00,,,0.00,meteohub,2013-08-31 11:07:00,
2013-08-31 06:12:00,69.3,65.3,29.80,SSE,157,0.0,2.0,87,0.00,,,0.00,meteohub,2013-08-31 11:12:00,
2013-08-31 06:17:00,68.9,65.5,29.80,SSE,159,0.0,1.0,89,0.00,,,0.00,meteohub,2013-08-31 11:17:00,
2013-08-31 06:22:00,69.1,65.7,29.80,SSE,163,0.0,1.0,89,0.00,,,0.00,meteohub,2013-08-31 11:22:00,
2013-08-31 06:27:00,69.4,65.7,29.80,SSE,164,0.0,1.0,88,0.00,,,0.00,meteohub,2013-08-31 11:27:00,
2013-08-31 06:32:00,69.3,65.5,29.80,SSE,163,0.0,0.0,88,0.00,,,0.00,meteohub,2013-08-31 11:32:00,
2013-08-31 06:37:00,69.1,65.7,29.80,SSE,167,0.0,0.0,89,0.00,,,0.00,meteohub,2013-08-31 11:37:00,
2013-08-31 06:42:00,69.4,65.7,29.80,SSE,159,0.0,0.0,88,0.00,,,0.00,meteohub,2013-08-31 11:42:00,
2013-08-31 06:47:00,69.6,65.7,29.80,SSE,157,0.0,1.0,87,0.00,,,0.00,meteohub,2013-08-31 11:47:00,
2013-08-31 06:52:00,69.4,65.7,29.80,SSE,158,0.0,1.0,88,0.00,,,0.00,meteohub,2013-08-31 11:52:00,
2013-08-31 06:57:00,69.3,65.8,29.80,SE,129,1.0,1.0,89,0.00,,,0.00,meteohub,2013-08-31 11:57:00,
2013-08-31 07:02:00,69.1,65.7,29.80,ESE,121,0.0,1.0,89,0.00,,,0.00,meteohub,2013-08-31 12:02:00,
2013-08-31 07:07:00,69.4,66.0,29.79,SE,134,0.0,1.0,89,0.00,,,0.00,meteohub,2013-08-31 12:07:00,
2013-08-31 07:12:00,70.0,66.2,29.79,SE,132,0.0,1.0,88,0.00,,,0.00,meteohub,2013-08-31 12:12:00,
2013-08-31 07:17:00,70.2,66.4,29.79,SE,133,0.0,1.0,88,0.00,,,0.00,meteohub,2013-08-31 12:17:00,
2013-08-31 07:22:00,70.9,66.7,29.79,South,169,4.0,4.0,87,0.00,,,0.00,meteohub,2013-08-31 12:22:00,
2013-08-31 07:27:00,71.4,66.7,29.79,SSE,159,0.0,5.0,85,0.00,,,0.00,meteohub,2013-08-31 12:27:00,
2013-08-31 07:32:00,72.0,66.9,29.78,SSE,161,0.0,5.0,84,0.00,,,0.00,meteohub,2013-08-31 12:32:00,
2013-08-31 07:37:00,72.3,66.9,29.79,South,171,5.0,5.0,83,0.00,,,0.00,meteohub,2013-08-31 12:37:00,
2013-08-31 07:42:00,72.7,66.9,29.79,SE,144,2.0,6.0,82,0.00,,,0.00,meteohub,2013-08-31 12:42:00,
2013-08-31 07:47:00,73.0,67.6,29.79,SSE,167,1.0,6.0,83,0.00,,,0.00,meteohub,2013-08-31 12:47:00,
2013-08-31 07:52:00,73.2,67.5,29.79,South,175,5.0,6.0,82,0.00,,,0.00,meteohub,2013-08-31 12:52:00,
2013-08-31 07:57:00,73.6,67.5,29.79,SSE,165,5.0,6.0,81,0.00,,,0.00,meteohub,2013-08-31 12:57:00,
2013-08-31 08:02:00,73.8,67.6,29.79,SSE,151,2.0,6.0,81,0.00,,,0.00,meteohub,2013-08-31 13:02:00,
2013-08-31 08:07:00,74.1,68.0,29.79,ESE,111,1.0,7.0,81,0.00,,,0.00,meteohub,2013-08-31 13:07:00,
2013-08-31 08:12:00,74.5,67.8,29.79,SSW,192,5.0,7.0,80,0.00,,,0.00,meteohub,2013-08-31 13:12:00,
2013-08-31 08:17:00,74.5,67.8,29.79,South,170,5.0,7.0,80,0.00,,,0.00,meteohub,2013-08-31 13:17:00,
2013-08-31 08:22:00,74.8,68.2,29.78,South,171,2.0,7.0,80,0.00,,,0.00,meteohub,2013-08-31 13:22:00,
2013-08-31 08:27:00,75.2,68.2,29.78,South,179,2.0,7.0,79,0.00,,,0.00,meteohub,2013-08-31 13:27:00,
2013-08-31 08:32:00,75.9,68.5,29.78,South,178,5.0,7.0,78,0.00,,,0.00,meteohub,2013-08-31 13:32:00,
2013-08-31 08:37:00,76.3,68.5,29.78,South,169,2.0,7.0,77,0.00,,,0.00,meteohub,2013-08-31 13:37:00,
2013-08-31 08:42:00,76.8,68.7,29.78,South,173,8.0,8.0,76,0.00,,,0.00,meteohub,2013-08-31 13:42:00,
2013-08-31 08:47:00,77.5,68.9,29.79,South,188,4.0,8.0,75,0.00,,,0.00,meteohub,2013-08-31 13:47:00,
2013-08-31 08:52:00,78.3,69.3,29.79,SSW,213,5.0,8.0,74,0.00,,,0.00,meteohub,2013-08-31 13:52:00,
2013-08-31 08:57:00,78.4,69.1,29.79,South,191,6.0,8.0,73,0.00,,,0.00,meteohub,2013-08-31 13:57:00,
2013-08-31 09:02:00,78.6,69.3,29.79,SSE,161,3.0,7.0,73,0.00,,,0.00,meteohub,2013-08-31 14:02:00,
2013-08-31 09:07:00,78.4,69.1,29.79,SW,214,4.0,8.0,73,0.00,,,0.00,meteohub,2013-08-31 14:07:00,
2013-08-31 09:12:00,78.6,69.3,29.79,South,171,5.0,8.0,73,0.00,,,0.00,meteohub,2013-08-31 14:12:00,
2013-08-31 09:17:00,79.0,69.3,29.79,SSW,192,3.0,8.0,72,0.00,,,0.00,meteohub,2013-08-31 14:17:00,
2013-08-31 09:22:00,79.2,69.3,29.79,SSE,150,2.0,7.0,72,0.00,,,0.00,meteohub,2013-08-31 14:22:00,
2013-08-31 09:27:00,79.3,69.4,29.79,SSW,205,1.0,7.0,72,0.00,,,0.00,meteohub,2013-08-31 14:27:00,
2013-08-31 09:32:00,79.3,69.1,29.79,SSE,161,1.0,7.0,71,0.00,,,0.00,meteohub,2013-08-31 14:32:00,
2013-08-31 09:37:00,79.9,69.6,29.79,SE,144,4.0,6.0,71,0.00,,,0.00,meteohub,2013-08-31 14:37:00,
2013-08-31 09:42:00,80.4,69.3,29.79,South,174,4.0,6.0,69,0.00,,,0.00,meteohub,2013-08-31 14:42:00,
2013-08-31 09:47:00,81.0,69.4,29.79,ESE,107,5.0,7.0,68,0.00,,,0.00,meteohub,2013-08-31 14:47:00,
2013-08-31 09:52:00,81.0,69.8,29.79,SSE,164,0.0,7.0,69,0.00,,,0.00,meteohub,2013-08-31 14:52:00,
2013-08-31 09:57:00,81.1,70.3,29.80,NE,48,0.0,7.0,70,0.00,,,0.00,meteohub,2013-08-31 14:57:00,
2013-08-31 10:02:00,81.7,70.5,29.79,SSW,204,2.0,7.0,69,0.00,,,0.00,meteohub,2013-08-31 15:02:00,
2013-08-31 10:07:00,82.2,70.5,29.79,South,180,4.0,7.0,68,0.00,,,0.00,meteohub,2013-08-31 15:07:00,
2013-08-31 10:12:00,82.8,69.8,29.79,South,188,3.0,7.0,65,0.00,,,0.00,meteohub,2013-08-31 15:12:00,
2013-08-31 10:17:00,82.8,69.8,29.79,South,171,4.0,7.0,65,0.00,,,0.00,meteohub,2013-08-31 15:17:00,
2013-08-31 10:22:00,82.2,70.2,29.79,SW,218,0.0,7.0,67,0.00,,,0.00,meteohub,2013-08-31 15:22:00,
2013-08-31 10:27:00,82.0,70.0,29.79,SSE,150,2.0,7.0,67,0.00,,,0.00,meteohub,2013-08-31 15:27:00,
2013-08-31 10:32:00,82.0,70.0,29.79,SSW,197,0.0,7.0,67,0.00,,,0.00,meteohub,2013-08-31 15:32:00,
2013-08-31 10:37:00,82.0,70.3,29.79,SW,219,1.0,7.0,68,0.00,,,0.00,meteohub,2013-08-31 15:37:00,
2013-08-31 10:42:00,82.2,70.5,29.79,SSW,192,4.0,7.0,68,0.00,,,0.00,meteohub,2013-08-31 15:42:00,
2013-08-31 10:47:00,82.8,71.1,29.80,SSW,204,4.0,5.0,68,0.00,,,0.00,meteohub,2013-08-31 15:47:00,
2013-08-31 10:52:00,83.1,71.1,29.79,South,186,0.0,5.0,67,0.00,,,0.00,meteohub,2013-08-31 15:52:00,
2013-08-31 10:57:00,83.5,70.5,29.79,WSW,244,1.0,6.0,65,0.00,,,0.00,meteohub,2013-08-31 15:57:00,
2013-08-31 11:02:00,83.7,70.7,29.78,SSW,205,0.0,8.0,65,0.00,,,0.00,meteohub,2013-08-31 16:02:00,
2013-08-31 11:07:00,84.0,71.1,29.78,SSW,204,8.0,8.0,65,0.00,,,0.00,meteohub,2013-08-31 16:07:00,
2013-08-31 11:12:00,84.7,71.2,29.78,SW,218,0.0,8.0,64,0.00,,,0.00,meteohub,2013-08-31 16:12:00,
2013-08-31 11:17:00,84.9,71.4,29.78,SSW,198,3.0,8.0,64,0.00,,,0.00,meteohub,2013-08-31 16:17:00,
2013-08-31 11:22:00,85.3,72.1,29.77,SSW,197,2.0,8.0,65,0.00,,,0.00,meteohub,2013-08-31 16:22:00,
2013-08-31 11:27:00,85.6,71.6,29.76,SSW,206,4.0,7.0,63,0.00,,,0.00,meteohub,2013-08-31 16:27:00,
2013-08-31 11:32:00,86.0,71.4,29.77,South,187,1.0,7.0,62,0.00,,,0.00,meteohub,2013-08-31 16:32:00,
2013-08-31 11:37:00,86.2,72.5,29.76,SW,220,6.0,8.0,64,0.00,,,0.00,meteohub,2013-08-31 16:37:00,
2013-08-31 11:42:00,86.7,72.7,29.76,SE,139,0.0,8.0,63,0.00,,,0.00,meteohub,2013-08-31 16:42:00,
2013-08-31 11:47:00,87.1,72.9,29.76,SSW,201,5.0,7.0,63,0.00,,,0.00,meteohub,2013-08-31 16:47:00,
2013-08-31 11:52:00,87.3,73.6,29.76,South,170,5.0,7.0,64,0.00,,,0.00,meteohub,2013-08-31 16:52:00,
2013-08-31 11:57:00,87.8,73.2,29.76,South,175,4.0,7.0,62,0.00,,,0.00,meteohub,2013-08-31 16:57:00,
2013-08-31 12:02:00,87.8,73.6,29.76,SW,234,0.0,7.0,63,0.00,,,0.00,meteohub,2013-08-31 17:02:00,
2013-08-31 12:07:00,87.6,73.4,29.76,SSW,210,5.0,8.0,63,0.00,,,0.00,meteohub,2013-08-31 17:07:00,
2013-08-31 12:12:00,87.4,73.2,29.75,SSW,211,5.0,9.0,63,0.00,,,0.00,meteohub,2013-08-31 17:12:00,
2013-08-31 12:17:00,88.0,74.3,29.75,SE,146,6.0,9.0,64,0.00,,,0.00,meteohub,2013-08-31 17:17:00,
2013-08-31 12:22:00,88.2,74.5,29.75,SSW,199,8.0,9.0,64,0.00,,,0.00,meteohub,2013-08-31 17:22:00,
2013-08-31 12:27:00,88.2,73.4,29.75,SSW,204,6.0,9.0,62,0.00,,,0.00,meteohub,2013-08-31 17:27:00,
2013-08-31 12:32:00,87.6,74.3,29.74,SW,215,6.0,10.0,65,0.00,,,0.00,meteohub,2013-08-31 17:32:00,
2013-08-31 12:37:00,89.1,74.8,29.74,SE,143,5.0,10.0,63,0.00,,,0.00,meteohub,2013-08-31 17:37:00,
2013-08-31 12:42:00,89.8,75.0,29.74,SW,223,3.0,10.0,62,0.00,,,0.00,meteohub,2013-08-31 17:42:00,
2013-08-31 12:47:00,89.8,75.0,29.74,SSW,202,5.0,10.0,62,0.00,,,0.00,meteohub,2013-08-31 17:47:00,
2013-08-31 12:52:00,90.1,75.4,29.75,South,180,4.0,10.0,62,0.00,,,0.00,meteohub,2013-08-31 17:52:00,
2013-08-31 12:57:00,90.9,75.6,29.75,South,185,5.0,8.0,61,0.00,,,0.00,meteohub,2013-08-31 17:57:00,
2013-08-31 13:02:00,90.7,75.4,29.74,South,190,3.0,9.0,61,0.00,,,0.00,meteohub,2013-08-31 18:02:00,
2013-08-31 13:07:00,90.9,75.6,29.74,SW,220,2.0,9.0,61,0.00,,,0.00,meteohub,2013-08-31 18:07:00,
2013-08-31 13:12:00,90.7,74.8,29.74,SSW,208,0.0,9.0,60,0.00,,,0.00,meteohub,2013-08-31 18:12:00,
2013-08-31 13:17:00,90.3,75.6,29.74,WSW,257,2.0,8.0,62,0.00,,,0.00,meteohub,2013-08-31 18:17:00,
2013-08-31 13:22:00,90.9,75.6,29.74,SSW,202,6.0,9.0,61,0.00,,,0.00,meteohub,2013-08-31 18:22:00,
2013-08-31 13:27:00,91.4,75.6,29.74,South,178,7.0,11.0,60,0.00,,,0.00,meteohub,2013-08-31 18:27:00,
2013-08-31 13:32:00,91.8,76.5,29.74,SW,214,1.0,11.0,61,0.00,,,0.00,meteohub,2013-08-31 18:32:00,
2013-08-31 13:37:00,91.9,76.1,29.74,SSW,205,5.0,11.0,60,0.00,,,0.00,meteohub,2013-08-31 18:37:00,
2013-08-31 13:42:00,91.8,76.5,29.74,SSW,195,5.0,9.0,61,0.00,,,0.00,meteohub,2013-08-31 18:42:00,
2013-08-31 13:47:00,92.1,76.6,29.74,SSW,199,8.0,8.0,61,0.00,,,0.00,meteohub,2013-08-31 18:47:00,
2013-08-31 13:52:00,92.3,76.8,29.74,SSE,148,4.0,8.0,61,0.00,,,0.00,meteohub,2013-08-31 18:52:00,
2013-08-31 13:57:00,91.6,76.3,29.74,SW,216,2.0,8.0,61,0.00,,,0.00,meteohub,2013-08-31 18:57:00,
2013-08-31 14:02:00,91.6,76.6,29.74,ESE,109,1.0,8.0,62,0.00,,,0.00,meteohub,2013-08-31 19:02:00,
2013-08-31 14:07:00,91.9,76.6,29.74,SSE,159,1.0,7.0,61,0.00,,,0.00,meteohub,2013-08-31 19:07:00,
2013-08-31 14:12:00,92.1,76.6,29.73,WSW,255,2.0,6.0,61,0.00,,,0.00,meteohub,2013-08-31 19:12:00,
2013-08-31 14:17:00,92.5,77.5,29.73,ENE,65,1.0,6.0,62,0.00,,,0.00,meteohub,2013-08-31 19:17:00,
2013-08-31 14:22:00,93.0,76.6,29.73,SSW,204,3.0,6.0,59,0.00,,,0.00,meteohub,2013-08-31 19:22:00,
2013-08-31 14:27:00,92.8,76.5,29.73,SSW,200,4.0,8.0,59,0.00,,,0.00,meteohub,2013-08-31 19:27:00,
2013-08-31 14:32:00,93.2,76.6,29.73,SSW,211,0.0,8.0,59,0.00,,,0.00,meteohub,2013-08-31 19:32:00,
2013-08-31 14:37:00,93.6,76.6,29.72,SSE,164,5.0,9.0,58,0.00,,,0.00,meteohub,2013-08-31 19:37:00,
2013-08-31 14:42:00,93.7,77.7,29.72,SSE,162,5.0,9.0,60,0.00,,,0.00,meteohub,2013-08-31 19:42:00,
2013-08-31 14:47:00,93.7,76.6,29.72,SSE,148,7.0,8.0,58,0.00,,,0.00,meteohub,2013-08-31 19:47:00,
2013-08-31 14:52:00,92.8,76.5,29.72,SSE,157,2.0,8.0,59,0.00,,,0.00,meteohub,2013-08-31 19:52:00,
2013-08-31 14:57:00,92.5,76.6,29.72,SSW,205,4.0,8.0,60,0.00,,,0.00,meteohub,2013-08-31 19:57:00,
2013-08-31 15:02:00,92.1,76.6,29.71,SSE,167,3.0,7.0,61,0.00,,,0.00,meteohub,2013-08-31 20:02:00,
2013-08-31 15:07:00,92.1,76.6,29.71,East,88,1.0,7.0,61,0.00,,,0.00,meteohub,2013-08-31 20:07:00,
2013-08-31 15:12:00,91.9,76.6,29.71,SSE,166,2.0,7.0,61,0.00,,,0.00,meteohub,2013-08-31 20:12:00,
2013-08-31 15:17:00,91.9,77.0,29.70,SSE,148,5.0,7.0,62,0.00,,,0.00,meteohub,2013-08-31 20:17:00,
2013-08-31 15:22:00,91.6,77.7,29.69,ENE,63,1.0,7.0,64,0.00,,,0.00,meteohub,2013-08-31 20:22:00,
2013-08-31 15:27:00,90.7,77.7,29.69,East,93,0.0,7.0,66,0.00,,,0.00,meteohub,2013-08-31 20:27:00,
2013-08-31 15:32:00,90.1,77.7,29.69,NE,41,0.0,7.0,67,0.00,,,0.00,meteohub,2013-08-31 20:32:00,
2013-08-31 15:37:00,90.1,78.1,29.69,North,5,0.0,7.0,68,0.00,,,0.00,meteohub,2013-08-31 20:37:00,
2013-08-31 15:42:00,90.3,77.4,29.68,ENE,65,3.0,6.0,66,0.00,,,0.00,meteohub,2013-08-31 20:42:00,
2013-08-31 15:47:00,90.0,77.0,29.68,NE,55,8.0,13.0,66,0.00,,,0.00,meteohub,2013-08-31 20:47:00,
2013-08-31 15:52:00,89.4,77.5,29.68,East,94,5.0,13.0,68,0.00,,,0.00,meteohub,2013-08-31 20:52:00,
2013-08-31 15:57:00,88.9,77.0,29.68,ENE,61,4.0,13.0,68,0.00,,,0.00,meteohub,2013-08-31 20:57:00,
2013-08-31 16:02:00,88.3,75.9,29.69,East,79,1.0,9.0,67,0.00,,,0.00,meteohub,2013-08-31 21:02:00,
2013-08-31 16:07:00,87.8,75.4,29.68,ENE,66,4.0,9.0,67,0.00,,,0.00,meteohub,2013-08-31 21:07:00,
2013-08-31 16:12:00,87.4,75.2,29.68,NE,46,3.0,9.0,67,0.00,,,0.00,meteohub,2013-08-31 21:12:00,
2013-08-31 16:17:00,87.1,75.7,29.68,SE,137,4.0,9.0,69,0.00,,,0.00,meteohub,2013-08-31 21:17:00,
2013-08-31 16:22:00,87.1,76.1,29.68,SE,142,0.0,9.0,70,0.00,,,0.00,meteohub,2013-08-31 21:22:00,
2013-08-31 16:27:00,86.7,75.7,29.68,East,97,1.0,8.0,70,0.00,,,0.00,meteohub,2013-08-31 21:27:00,
2013-08-31 16:32:00,86.2,73.9,29.67,SSE,153,2.0,6.0,67,0.00,,,0.00,meteohub,2013-08-31 21:32:00,
2013-08-31 16:37:00,86.2,74.3,29.68,East,88,0.0,6.0,68,0.00,,,0.00,meteohub,2013-08-31 21:37:00,
2013-08-31 16:42:00,85.8,74.5,29.68,ENE,57,1.0,6.0,69,0.00,,,0.00,meteohub,2013-08-31 21:42:00,
2013-08-31 16:47:00,85.6,74.3,29.67,ENE,71,2.0,6.0,69,0.00,,,0.00,meteohub,2013-08-31 21:47:00,
2013-08-31 16:52:00,85.3,73.9,29.67,NE,39,4.0,6.0,69,0.00,,,0.00,meteohub,2013-08-31 21:52:00,
2013-08-31 16:57:00,84.9,73.6,29.66,NNE,32,2.0,6.0,69,0.00,,,0.00,meteohub,2013-08-31 21:57:00,
2013-08-31 17:02:00,84.6,73.8,29.67,NNW,339,8.0,8.0,70,0.00,,,0.00,meteohub,2013-08-31 22:02:00,
2013-08-31 17:07:00,83.5,71.8,29.69,NE,49,7.0,11.0,68,0.00,,,0.00,meteohub,2013-08-31 22:07:00,
2013-08-31 17:12:00,83.1,72.0,29.67,South,182,0.0,13.0,69,0.00,,,0.00,meteohub,2013-08-31 22:12:00,
2013-08-31 17:17:00,83.1,71.4,29.68,East,83,0.0,13.0,68,0.00,,,0.00,meteohub,2013-08-31 22:17:00,
2013-08-31 17:22:00,82.9,71.2,29.67,NE,49,2.0,13.0,68,0.00,,,0.00,meteohub,2013-08-31 22:22:00,
2013-08-31 17:27:00,82.4,70.3,29.68,ENE,77,3.0,6.0,67,0.00,,,0.00,meteohub,2013-08-31 22:27:00,
2013-08-31 17:32:00,82.0,70.9,29.70,NW,314,8.0,8.0,69,0.00,,,0.00,meteohub,2013-08-31 22:32:00,
2013-08-31 17:37:00,81.9,71.6,29.70,NNW,329,4.0,11.0,71,0.01,,,0.01,meteohub,2013-08-31 22:37:00,
2013-08-31 17:42:00,81.3,72.3,29.70,NW,314,0.0,11.0,74,0.02,,,0.02,meteohub,2013-08-31 22:42:00,
2013-08-31 17:47:00,80.1,71.1,29.71,NE,48,2.0,11.0,74,0.20,,,0.20,meteohub,2013-08-31 22:47:00,
2013-08-31 17:52:00,79.0,73.0,29.71,NNE,33,6.0,6.0,82,0.22,,,0.22,meteohub,2013-08-31 22:52:00,
2013-08-31 17:57:00,78.6,73.0,29.71,NE,41,0.0,7.0,83,0.22,,,0.22,meteohub,2013-08-31 22:57:00,
2013-08-31 18:02:00,78.4,73.6,29.73,NW,308,7.0,7.0,85,0.23,,,0.23,meteohub,2013-08-31 23:02:00,
2013-08-31 18:07:00,78.1,73.6,29.73,North,349,4.0,9.0,86,0.23,,,0.23,meteohub,2013-08-31 23:07:00,
2013-08-31 18:12:00,78.1,73.2,29.74,SSW,200,5.0,9.0,85,0.23,,,0.23,meteohub,2013-08-31 23:12:00,
2013-08-31 18:17:00,77.7,71.4,29.76,SW,236,10.0,20.0,81,0.23,,,0.23,meteohub,2013-08-31 23:17:00,
2013-08-31 18:22:00,76.5,69.1,29.74,SSW,205,9.0,20.0,78,0.23,,,0.23,meteohub,2013-08-31 23:22:00,
2013-08-31 18:27:00,76.3,67.5,29.72,SW,216,7.0,20.0,74,0.23,,,0.23,meteohub,2013-08-31 23:27:00,
2013-08-31 18:32:00,75.7,67.3,29.73,South,175,2.0,14.0,75,0.23,,,0.23,meteohub,2013-08-31 23:32:00,
2013-08-31 18:37:00,75.6,67.1,29.74,SSE,163,0.0,11.0,75,0.21,,,0.23,meteohub,2013-08-31 23:37:00,
2013-08-31 18:42:00,75.2,68.2,29.73,East,83,0.0,8.0,79,0.16,,,0.23,meteohub,2013-08-31 23:42:00,
2013-08-31 18:47:00,74.1,66.7,29.72,ENE,57,6.0,7.0,78,0.02,,,0.23,meteohub,2013-08-31 23:47:00,
2013-08-31 18:52:00,73.6,67.5,29.70,NE,39,0.0,6.0,81,0.01,,,0.23,meteohub,2013-08-31 23:52:00,
2013-08-31 18:57:00,73.0,66.9,29.70,ENE,74,5.0,6.0,81,0.00,,,0.23,meteohub,2013-08-31 23:57:00,
2013-08-31 19:02:00,72.9,66.7,29.70,East,94,2.0,6.0,81,0.00,,,0.23,meteohub,2013-09-01 00:02:00,
2013-08-31 19:07:00,73.8,67.6,29.73,SSW,209,6.0,6.0,81,0.00,,,0.23,meteohub,2013-09-01 00:07:00,
2013-08-31 19:12:00,74.1,67.1,29.73,SSE,167,2.0,11.0,79,0.00,,,0.23,meteohub,2013-09-01 00:12:00,
2013-08-31 19:17:00,74.5,67.5,29.73,SSW,192,5.0,11.0,79,0.00,,,0.23,meteohub,2013-09-01 00:17:00,
2013-08-31 19:22:00,74.1,67.6,29.73,ESE,113,0.0,11.0,80,0.00,,,0.23,meteohub,2013-09-01 00:22:00,
2013-08-31 19:27:00,74.1,67.1,29.72,NE,48,0.0,7.0,79,0.00,,,0.23,meteohub,2013-09-01 00:27:00,
2013-08-31 19:32:00,73.6,67.5,29.72,East,88,0.0,7.0,81,0.00,,,0.23,meteohub,2013-09-01 00:32:00,
2013-08-31 19:37:00,72.9,67.1,29.72,ENE,63,2.0,7.0,82,0.00,,,0.23,meteohub,2013-09-01 00:37:00,
2013-08-31 19:42:00,72.3,67.3,29.72,NE,40,0.0,5.0,84,0.00,,,0.23,meteohub,2013-09-01 00:42:00,
2013-08-31 19:47:00,72.3,67.6,29.72,ENE,75,3.0,5.0,85,0.00,,,0.23,meteohub,2013-09-01 00:47:00,
2013-08-31 19:52:00,72.7,67.6,29.72,ESE,117,0.0,7.0,84,0.00,,,0.23,meteohub,2013-09-01 00:52:00,
2013-08-31 19:57:00,73.2,67.8,29.72,ESE,121,0.0,7.0,83,0.00,,,0.23,meteohub,2013-09-01 00:57:00,
2013-08-31 20:02:00,73.6,67.8,29.71,ENE,69,0.0,7.0,82,0.00,,,0.23,meteohub,2013-09-01 01:02:00,
2013-08-31 20:07:00,73.2,67.8,29.71,NE,47,0.0,5.0,83,0.00,,,0.23,meteohub,2013-09-01 01:07:00,
2013-08-31 20:12:00,72.9,67.5,29.70,NE,54,0.0,5.0,83,0.00,,,0.23,meteohub,2013-09-01 01:12:00,
2013-08-31 20:17:00,72.7,67.8,29.70,ENE,61,2.0,2.0,85,0.00,,,0.23,meteohub,2013-09-01 01:17:00,
2013-08-31 20:22:00,72.3,67.6,29.71,ENE,62,3.0,4.0,85,0.00,,,0.23,meteohub,2013-09-01 01:22:00,
2013-08-31 20:27:00,72.3,67.6,29.72,East,80,0.0,6.0,85,0.00,,,0.23,meteohub,2013-09-01 01:27:00,
2013-08-31 20:32:00,72.1,67.1,29.71,ENE,67,1.0,6.0,84,0.00,,,0.23,meteohub,2013-09-01 01:32:00,
2013-08-31 20:37:00,72.1,67.5,29.72,ENE,68,1.0,6.0,85,0.00,,,0.23,meteohub,2013-09-01 01:37:00,
2013-08-31 20:42:00,72.1,67.5,29.72,NE,53,0.0,3.0,85,0.00,,,0.23,meteohub,2013-09-01 01:42:00,
2013-08-31 20:47:00,72.1,67.1,29.72,ENE,76,0.0,5.0,84,0.00,,,0.23,meteohub,2013-09-01 01:47:00,
2013-08-31 20:52:00,72.3,67.3,29.71,East,86,0.0,5.0,84,0.00,,,0.23,meteohub,2013-09-01 01:52:00,
2013-08-31 20:57:00,72.1,67.1,29.72,ENE,74,0.0,2.0,84,0.00,,,0.23,meteohub,2013-09-01 01:57:00,
2013-08-31 21:02:00,72.1,67.1,29.71,NE,44,2.0,2.0,84,0.00,,,0.23,meteohub,2013-09-01 02:02:00,
2013-08-31 21:07:00,72.1,67.1,29.71,East,86,1.0,2.0,84,0.00,,,0.23,meteohub,2013-09-01 02:07:00,
2013-08-31 21:12:00,72.1,66.7,29.72,ENE,69,1.0,3.0,83,0.00,,,0.23,meteohub,2013-09-01 02:12:00,
2013-08-31 21:17:00,72.1,66.7,29.73,ENE,71,1.0,3.0,83,0.00,,,0.23,meteohub,2013-09-01 02:17:00,
2013-08-31 21:22:00,72.1,66.7,29.73,East,82,0.0,3.0,83,0.00,,,0.23,meteohub,2013-09-01 02:22:00,
2013-08-31 21:27:00,72.5,67.1,29.73,ENE,73,0.0,2.0,83,0.00,,,0.23,meteohub,2013-09-01 02:27:00,
2013-08-31 21:32:00,73.0,67.3,29.73,SE,125,1.0,3.0,82,0.00,,,0.23,meteohub,2013-09-01 02:32:00,
2013-08-31 21:37:00,73.2,67.1,29.73,ESE,104,0.0,5.0,81,0.00,,,0.23,meteohub,2013-09-01 02:37:00,
2013-08-31 21:42:00,73.4,67.3,29.73,SE,132,1.0,5.0,81,0.00,,,0.23,meteohub,2013-09-01 02:42:00,
2013-08-31 21:47:00,73.6,67.1,29.73,East,96,2.0,4.0,80,0.00,,,0.23,meteohub,2013-09-01 02:47:00,
2013-08-31 21:52:00,73.2,67.1,29.73,East,100,1.0,5.0,81,0.00,,,0.23,meteohub,2013-09-01 02:52:00,
2013-08-31 21:57:00,73.0,67.6,29.73,ENE,69,0.0,5.0,83,0.00,,,0.23,meteohub,2013-09-01 02:57:00,
2013-08-31 22:02:00,73.0,68.0,29.73,SE,132,2.0,5.0,84,0.00,,,0.23,meteohub,2013-09-01 03:02:00,
2013-08-31 22:07:00,73.2,67.8,29.73,SSE,163,0.0,6.0,83,0.00,,,0.23,meteohub,2013-09-01 03:07:00,
2013-08-31 22:12:00,73.4,68.0,29.73,East,93,0.0,6.0,83,0.00,,,0.23,meteohub,2013-09-01 03:12:00,
2013-08-31 22:17:00,73.6,68.2,29.74,SE,138,0.0,6.0,83,0.00,,,0.23,meteohub,2013-09-01 03:17:00,
2013-08-31 22:22:00,73.8,68.4,29.75,SSE,164,2.0,7.0,83,0.00,,,0.23,meteohub,2013-09-01 03:22:00,
2013-08-31 22:27:00,73.6,68.2,29.75,South,176,4.0,7.0,83,0.00,,,0.23,meteohub,2013-09-01 03:27:00,
2013-08-31 22:32:00,73.6,67.8,29.75,South,188,0.0,7.0,82,0.00,,,0.23,meteohub,2013-09-01 03:32:00,
2013-08-31 22:37:00,73.6,67.8,29.75,SSE,159,5.0,5.0,82,0.00,,,0.23,meteohub,2013-09-01 03:37:00,
2013-08-31 22:42:00,73.2,67.8,29.75,SSE,156,0.0,6.0,83,0.00,,,0.23,meteohub,2013-09-01 03:42:00,
2013-08-31 22:47:00,73.2,68.2,29.75,SSE,154,4.0,6.0,84,0.00,,,0.23,meteohub,2013-09-01 03:47:00,
2013-08-31 22:52:00,73.2,68.2,29.75,South,178,3.0,9.0,84,0.00,,,0.23,meteohub,2013-09-01 03:52:00,
2013-08-31 22:57:00,73.2,68.4,29.75,SSW,210,4.0,9.0,85,0.00,,,0.23,meteohub,2013-09-01 03:57:00,
2013-08-31 23:01:00,73.6,68.7,29.75,South,183,5.0,9.0,85,0.00,,,0.23,meteohub,2013-09-01 04:01:00,
2013-08-31 23:02:00,73.6,68.7,29.75,South,175,4.0,9.0,85,0.00,,,0.23,meteohub,2013-09-01 04:02:00,
2013-08-31 23:04:00,73.6,68.7,29.75,SSE,161,6.0,9.0,85,0.00,,,0.23,meteohub,2013-09-01 04:04:00,
2013-08-31 23:05:00,73.6,68.7,29.75,South,186,2.0,7.0,85,0.00,,,0.23,meteohub,2013-09-01 04:05:00,
2013-08-31 23:10:00,73.8,68.9,29.75,South,185,4.0,7.0,85,0.00,,,0.23,meteohub,2013-09-01 04:10:00,
2013-08-31 23:15:00,73.9,69.1,29.75,SSE,150,0.0,7.0,85,0.00,,,0.23,meteohub,2013-09-01 04:15:00,
2013-08-31 23:20:00,73.9,69.1,29.74,South,185,4.0,7.0,85,0.00,,,0.23,meteohub,2013-09-01 04:20:00,
2013-08-31 23:25:00,73.9,69.1,29.75,SSW,198,3.0,7.0,85,0.00,,,0.23,meteohub,2013-09-01 04:25:00,
2013-08-31 23:30:00,74.1,69.3,29.75,SSE,153,4.0,6.0,85,0.00,,,0.23,meteohub,2013-09-01 04:30:00,
2013-08-31 23:35:00,73.9,68.7,29.74,SSE,152,4.0,6.0,84,0.00,,,0.23,meteohub,2013-09-01 04:35:00,
2013-08-31 23:41:00,73.9,68.7,29.74,SE,128,3.0,8.0,84,0.00,,,0.23,meteohub,2013-09-01 04:41:00,
2013-08-31 23:46:00,73.9,68.7,29.75,South,180,0.0,8.0,84,0.00,,,0.23,meteohub,2013-09-01 04:46:00,
2013-08-31 23:51:00,73.9,68.7,29.75,SSW,196,0.0,8.0,84,0.00,,,0.23,meteohub,2013-09-01 04:51:00,
2013-08-31 23:56:00,73.9,68.7,29.75,South,176,4.0,6.0,84,0.00,,,0.23,meteohub,2013-09-01 04:56:00,